Wind_Speed
18 19 19 20 20 21 21 21 21 21 21 21 22 22 21 20 21 21 21 20 20 20 20 20 21 20 21 22 22 22 22 22 21 22 22 22 22 22 22 22 22 21 21
19 19 19 19 20 21 21 21 21 22 21 21 21 21 20 19 20 20 20 20 20 20 20 21 21 21 21 22 22 22 22 22 22 22 22 22 23 23 23 23 22 22 22
19 19 20 20 20 20 21 20 21 21 21 22 22 21 21 20 20 20 20 21 21 21 21 21 21 21 21 21 21 22 22 22 22 22 22 23 24 23 23 24 23 23 23
19 20 20 20 20 20 20 20 20 21 21 21 22 22 21 21 20 20 20 20 20 20 21 21 21 21 21 22 22 22 22 23 23 22 23 23 24 24 24 24 24 24 24
20 20 20 20 20 20 20 20 21 21 21 21 21 21 21 21 22 21 20 20 20 20 21 22 22 22 21 22 23 23 23 23 24 24 24 24 25 25 25 25 25 25 25
21 21 21 21 20 21 21 21 22 21 21 21 21 21 21 21 21 21 21 21 21 22 22 22 23 23 23 24 24 24 24 24 24 24 25 25 25 26 26 26 25 25 26
22 22 22 22 22 23 23 23 22 22 22 22 21 21 21 21 22 22 22 22 23 23 24 24 24 24 25 26 26 25 25 25 25 25 26 26 26 27 27 27 26 26 25
22 23 23 24 24 24 24 23 22 22 23 24 24 23 23 23 23 23 24 24 24 25 25 25 25 25 26 27 27 26 26 26 26 26 26 26 27 28 28 28 28 28 28
23 24 24 24 24 24 24 23 23 23 23 23 24 24 24 24 24 25 25 26 26 26 26 26 27 26 27 27 27 27 27 27 28 28 28 29 29 29 29 29 28 29 29
23 24 24 25 25 24 24 24 24 24 24 24 25 25 25 25 25 26 26 27 27 27 27 28 28 28 27 28 28 28 28 29 29 29 30 30 30 29 30 30 30 30 30
24 25 25 26 26 26 26 26 26 25 25 26 26 26 27 27 27 27 27 28 28 28 28 29 29 29 28 29 29 29 29 29 30 30 30 30 30 30 30 31 31 31 31
25 26 26 26 26 26 26 26 27 27 27 27 27 27 27 27 27 27 27 28 28 28 28 29 29 29 29 29 30 31 31 31 31 31 31 31 32 32 32 32 32 32 32
26 26 27 27 27 26 26 26 27 27 28 28 28 28 27 27 27 28 28 28 29 29 29 29 30 30 30 31 31 31 32 32 33 33 33 33 33 33 33 33 33 33 33
26 26 26 26 26 26 27 27 28 28 28 28 28 28 28 28 28 29 29 29 30 30 31 31 32 32 31 31 32 32 32 33 33 33 33 33 34 34 34 34 33 33 34
26 26 25 25 25 26 26 27 27 28 29 28 28 28 28 28 28 29 30 30 30 30 31 31 32 32 32 32 32 32 32 33 33 33 33 33 33 34 34 35 35 34 34
25 25 25 25 25 26 26 27 27 28 28 28 28 28 29 29 29 29 30 30 31 31 32 31 31 31 32 32 32 32 32 32 33 33 34 34 34 34 34 34 34 35 34
25 25 26 26 26 27 27 27 27 27 28 28 28 28 29 29 29 30 30 30 31 31 31 31 31 31 31 32 32 32 32 31 32 33 33 34 34 35 35 35 35 35 36
26 26 26 26 27 27 28 28 28 28 28 28 28 28 29 29 30 30 30 30 30 30 30 30 31 31 31 31 32 32 32 32 32 33 33 34 35 35 35 36 36 36 36
26 26 27 27 27 28 29 29 29 28 28 28 28 28 29 29 29 29 30 31 30 30 30 30 30 30 30 31 32 32 33 33 34 34 34 34 35 36 37 37 37 37 37
27 27 27 28 28 29 29 29 29 29 29 29 29 29 29 29 29 29 29 30 30 31 31 31 30 30 31 31 32 33 33 34 34 35 35 35 35 35 36 37 37 37 37
27 28 28 28 28 28 29 29 29 29 30 30 30 30 30 30 29 29 29 29 30 30 31 31 31 31 32 32 32 33 33 34 35 35 36 35 35 35 35 36 36 37 37
26 27 27 27 28 29 29 30 30 30 30 29 29 29 29 29 29 28 28 28 28 29 30 31 31 32 32 32 32 33 33 33 33 34 35 36 36 36 35 35 35 35 36
26 27 27 27 28 28 29 29 29 29 28 28 28 28 28 28 28 28 28 28 28 28 29 30 31 31 31 32 33 33 33 34 34 34 34 35 36 36 36 36 36 35 36
27 28 28 28 28 28 29 29 29 29 28 27 27 27 27 27 27 27 28 28 28 29 29 30 31 31 31 32 32 33 33 33 33 33 34 35 35 35 36 36 37 37 36
28 28 28 28 28 28 28 29 28 28 28 27 26 26 27 27 27 27 28 28 29 29 30 30 30 30 31 31 32 32 32 33 33 34 34 34 35 35 35 35 36 36 36
28 29 29 28 28 28 28 28 28 28 27 27 26 27 27 27 28 28 27 28 28 29 29 30 30 30 30 31 31 32 32 32 33 34 35 35 35 35 35 35 35 34 35
Wind_Direction
290 290 289 288 289 287 286 283 281 280 279 276 275 276 274 273 270 266 265 264 261 260 260 260 261 262 261 261 261 260 258 257 256 257 258 260 261 262 262 261 260 262 261
290 291 293 293 291 290 288 284 281 281 280 278 277 274 273 272 270 266 265 263 260 260 260 260 261 262 261 260 260 260 259 257 257 259 258 259 261 262 262 262 263 262 262
290 290 291 293 292 290 289 286 282 281 280 278 275 274 271 270 270 267 263 261 260 259 259 259 261 261 260 259 259 258 259 258 259 261 259 259 261 261 262 263 264 263 262
288 289 290 291 292 291 290 288 284 282 280 279 277 274 272 269 270 270 266 262 260 259 258 258 259 259 260 259 259 259 260 259 260 261 261 262 262 262 262 263 264 264 265
287 287 288 290 290 290 289 289 286 283 281 281 279 274 271 270 269 269 268 265 261 260 258 257 258 259 260 260 260 260 261 261 261 261 261 261 261 261 261 262 263 264 265
286 287 288 288 288 288 289 289 285 282 280 281 278 273 273 271 269 268 267 266 263 262 260 260 260 259 259 260 260 261 261 262 263 263 262 261 260 260 261 262 264 264 265
286 285 286 287 287 287 286 286 284 283 282 282 280 276 272 270 269 268 267 265 264 264 263 262 262 262 261 260 260 262 263 263 264 265 264 263 262 260 261 262 263 264 265
287 285 286 286 287 286 287 285 283 283 281 280 280 277 273 271 270 269 268 268 267 266 266 264 263 264 263 262 261 261 262 263 265 266 266 265 265 263 262 263 263 264 265
287 286 287 288 287 287 287 285 283 282 282 280 278 276 274 273 272 272 270 269 269 267 267 266 265 265 264 264 263 261 261 263 265 266 268 268 267 266 264 263 264 265 265
286 286 286 286 287 286 285 283 282 281 281 280 278 275 274 273 272 271 271 270 269 268 267 267 267 266 265 264 265 263 262 263 264 266 267 267 267 266 266 265 265 265 265
284 285 286 287 287 286 284 283 283 282 281 280 279 277 276 275 274 273 272 270 269 270 268 268 267 267 267 266 266 265 263 263 264 265 267 267 267 267 266 267 267 266 264
283 283 284 286 286 286 285 284 284 284 283 282 280 278 277 275 275 273 272 272 271 270 270 269 268 268 269 269 267 266 265 265 265 267 268 268 268 268 268 268 267 266 265
285 284 284 285 286 286 285 285 285 286 285 284 283 281 278 277 276 275 275 274 271 270 269 268 268 268 269 270 269 267 265 265 266 267 267 267 267 267 267 267 266 265 264
286 286 286 286 286 286 285 286 285 286 286 285 284 282 280 277 276 275 274 274 274 272 271 271 270 269 269 270 269 267 266 265 265 265 265 265 266 267 268 268 267 266 265
288 288 289 288 287 285 285 286 287 287 288 287 285 283 281 278 277 277 275 274 275 274 273 273 272 272 271 270 270 269 268 267 266 266 265 265 266 266 267 268 268 267 266
288 289 290 290 290 289 289 288 288 289 289 289 287 284 282 279 276 276 276 274 274 273 272 272 272 272 272 271 270 271 270 268 266 267 266 266 266 266 267 268 268 268 266
288 288 289 290 291 291 290 290 289 290 291 290 289 287 285 281 278 276 275 275 275 274 273 272 272 272 272 272 271 271 271 269 268 267 267 267 266 266 266 267 268 269 267
288 289 289 291 292 292 292 291 291 290 290 291 290 289 288 284 281 278 276 275 276 276 276 275 273 271 271 271 271 271 271 269 268 267 267 267 267 267 266 266 268 269 268
288 289 290 292 293 294 293 292 292 291 291 291 291 290 289 288 285 281 278 276 276 276 276 276 275 273 272 272 271 271 271 270 269 267 267 267 266 267 267 267 268 268 268
289 290 291 293 294 293 293 293 292 291 291 291 291 290 290 289 287 284 280 278 278 277 277 276 276 275 274 273 273 273 272 270 270 269 269 268 266 267 268 268 268 268 267
289 291 292 292 292 292 293 295 294 292 291 291 290 289 288 287 287 285 283 280 279 278 277 276 276 276 275 274 274 274 273 272 271 270 270 269 268 267 267 268 268 268 268
290 291 292 293 292 292 293 294 294 294 293 291 290 289 288 287 286 285 283 282 280 278 277 277 277 276 276 275 275 275 274 273 273 272 271 270 270 268 268 268 268 268 269
291 292 293 293 294 295 294 295 295 295 295 293 292 290 288 287 285 285 284 283 281 279 278 278 278 277 277 277 277 276 275 274 273 273 273 272 270 269 269 270 269 267 267
292 294 295 295 296 298 298 297 298 298 297 296 294 292 290 289 288 287 285 284 282 281 279 279 279 278 278 278 278 278 277 275 274 274 273 272 271 270 270 270 270 268 266
292 293 295 296 296 297 297 298 298 298 298 297 295 293 291 289 289 290 287 285 283 280 279 279 279 279 280 280 280 281 279 277 276 275 274 273 272 271 270 270 269 269 268
293 293 295 296 296 296 296 297 297 297 297 296 294 293 293 292 291 290 288 286 285 283 281 280 280 281 282 281 282 283 282 280 280 278 277 275 273 272 270 269 269 269 268
Height
5785 5783 5781 5779 5777 5776 5774 5773 5772 5770 5769 5768 5768 5767 5766 5766 5766 5767 5767 5768 5768 5769 5770 5770 5771 5772 5773 5773 5774 5774 5775 5776 5777 5777 5778 5778 5779 5779 5780 5780 5780 5781 5781
5779 5777 5775 5774 5772 5770 5768 5766 5765 5764 5763 5762 5761 5760 5760 5760 5760 5760 5761 5761 5762 5763 5763 5764 5765 5766 5766 5767 5768 5768 5769 5769 5770 5771 5771 5772 5772 5773 5773 5774 5774 5774 5774
5773 5772 5770 5768 5766 5764 5762 5760 5759 5757 5756 5755 5754 5754 5754 5754 5754 5754 5754 5755 5755 5756 5757 5758 5758 5759 5760 5761 5761 5762 5763 5763 5764 5764 5765 5765 5766 5766 5767 5767 5767 5768 5768
5768 5766 5764 5762 5760 5758 5756 5754 5753 5751 5750 5749 5748 5747 5747 5747 5747 5747 5747 5748 5749 5750 5751 5751 5752 5753 5754 5754 5755 5756 5756 5757 5757 5757 5758 5758 5758 5759 5760 5760 5760 5761 5761
5761 5760 5758 5757 5754 5752 5750 5748 5747 5745 5744 5743 5742 5741 5741 5741 5741 5741 5741 5741 5742 5743 5744 5745 5746 5746 5747 5748 5748 5749 5749 5749 5750 5750 5751 5751 5751 5752 5753 5753 5753 5753 5753
5755 5753 5752 5750 5748 5746 5744 5742 5741 5739 5738 5737 5736 5735 5735 5735 5734 5734 5735 5736 5736 5737 5737 5738 5738 5739 5740 5740 5741 5741 5742 5742 5742 5743 5743 5744 5744 5744 5745 5745 5745 5746 5746
5748 5746 5745 5743 5742 5740 5738 5736 5735 5733 5732 5731 5730 5730 5729 5728 5728 5728 5729 5729 5730 5730 5731 5731 5731 5732 5732 5733 5733 5734 5734 5734 5735 5735 5735 5735 5735 5736 5736 5737 5737 5738 5738
5741 5739 5738 5736 5735 5733 5731 5730 5728 5726 5725 5724 5723 5723 5722 5722 5722 5722 5722 5722 5723 5723 5723 5724 5724 5724 5724 5725 5725 5726 5726 5726 5727 5727 5727 5727 5727 5727 5727 5728 5728 5729 5730
5734 5732 5731 5729 5728 5726 5724 5722 5721 5719 5718 5717 5716 5716 5715 5715 5715 5714 5714 5714 5715 5715 5715 5716 5716 5716 5716 5716 5717 5717 5718 5718 5718 5718 5718 5718 5718 5718 5718 5719 5719 5720 5721
5727 5725 5724 5722 5720 5718 5717 5715 5714 5712 5711 5710 5709 5708 5707 5707 5707 5707 5706 5706 5706 5707 5707 5707 5707 5707 5707 5707 5707 5708 5708 5709 5709 5709 5709 5709 5708 5708 5708 5709 5710 5710 5711
5720 5718 5716 5714 5713 5711 5709 5707 5706 5705 5703 5702 5701 5700 5699 5699 5698 5698 5698 5697 5697 5697 5698 5698 5698 5698 5698 5698 5698 5698 5699 5699 5699 5699 5699 5699 5698 5698 5699 5699 5699 5700 5701
5712 5710 5708 5706 5704 5703 5701 5699 5698 5696 5695 5694 5692 5691 5690 5690 5689 5689 5688 5688 5688 5688 5688 5689 5688 5688 5688 5688 5688 5688 5688 5689 5689 5688 5688 5688 5688 5688 5688 5688 5688 5689 5689
5704 5702 5700 5698 5696 5694 5692 5691 5689 5688 5686 5685 5683 5682 5682 5681 5680 5680 5679 5679 5679 5679 5679 5679 5678 5678 5678 5677 5677 5677 5677 5678 5678 5678 5677 5677 5677 5677 5677 5677 5677 5677 5678
5696 5694 5692 5690 5688 5686 5684 5682 5681 5679 5677 5676 5675 5674 5673 5672 5671 5671 5670 5670 5669 5669 5668 5668 5668 5667 5667 5666 5666 5666 5666 5666 5666 5666 5666 5666 5666 5666 5666 5666 5666 5667 5667
5687 5685 5683 5682 5680 5678 5676 5674 5672 5670 5668 5667 5666 5664 5663 5663 5662 5661 5660 5660 5659 5659 5658 5657 5657 5656 5656 5656 5655 5654 5654 5654 5655 5655 5655 5655 5655 5656 5656 5655 5655 5656 5656
5680 5678 5676 5674 5672 5670 5668 5666 5664 5662 5660 5658 5656 5655 5653 5652 5651 5651 5650 5649 5648 5648 5647 5647 5646 5646 5645 5645 5644 5644 5644 5644 5644 5644 5644 5644 5645 5645 5645 5645 5645 5645 5646
5672 5670 5668 5666 5664 5662 5659 5657 5656 5654 5651 5649 5647 5645 5643 5642 5641 5640 5639 5638 5638 5637 5636 5636 5635 5635 5634 5634 5634 5634 5634 5633 5633 5633 5634 5634 5634 5634 5634 5634 5634 5634 5634
5664 5662 5660 5658 5656 5653 5651 5649 5647 5645 5643 5640 5638 5635 5633 5632 5631 5629 5628 5627 5627 5626 5626 5625 5625 5624 5624 5624 5624 5623 5623 5623 5622 5622 5623 5623 5623 5623 5623 5623 5623 5623 5623
5657 5655 5652 5650 5647 5645 5642 5640 5638 5636 5634 5631 5629 5626 5624 5622 5620 5619 5617 5617 5616 5616 5615 5614 5614 5613 5613 5613 5613 5612 5612 5612 5611 5611 5611 5611 5611 5611 5611 5611 5611 5611 5611
5649 5647 5644 5642 5639 5636 5634 5631 5629 5627 5624 5622 5620 5617 5614 5612 5610 5609 5607 5606 5606 5605 5605 5604 5604 5603 5603 5602 5602 5602 5601 5601 5600 5600 5600 5599 5599 5599 5599 5599 5599 5599 5599
5641 5638 5636 5633 5631 5628 5625 5622 5620 5617 5615 5612 5610 5607 5605 5602 5601 5599 5597 5596 5595 5595 5594 5594 5593 5593 5592 5592 5591 5591 5590 5589 5589 5588 5588 5588 5588 5588 5587 5587 5587 5587 5587
5632 5630 5627 5625 5622 5619 5616 5614 5611 5608 5605 5603 5600 5598 5595 5593 5591 5589 5588 5586 5586 5585 5584 5584 5583 5582 5582 5581 5580 5580 5579 5578 5577 5576 5576 5576 5576 5576 5575 5575 5575 5575 5574
5624 5621 5619 5616 5613 5610 5608 5605 5602 5599 5596 5593 5591 5588 5586 5584 5582 5580 5578 5577 5576 5575 5574 5573 5572 5572 5571 5570 5569 5568 5567 5567 5566 5565 5565 5564 5564 5563 5563 5563 5563 5562 5562
5615 5612 5610 5607 5605 5602 5599 5596 5593 5590 5587 5584 5582 5579 5577 5575 5573 5571 5569 5568 5566 5565 5564 5563 5562 5561 5560 5559 5558 5557 5556 5555 5554 5553 5553 5552 5552 5551 5551 5550 5550 5550 5550
5606 5604 5601 5598 5596 5593 5590 5587 5584 5581 5578 5576 5574 5571 5569 5567 5565 5562 5560 5559 5557 5555 5554 5553 5552 5551 5550 5548 5547 5546 5545 5544 5543 5542 5541 5540 5540 5539 5538 5538 5538 5537 5537
5597 5595 5592 5590 5587 5584 5581 5579 5576 5573 5570 5568 5565 5563 5561 5558 5556 5554 5551 5549 5547 5546 5544 5543 5541 5540 5539 5538 5537 5535 5534 5533 5531 5530 5529 5528 5527 5527 5526 5526 5525 5525 5525